Location: Unspecified
(0.0000°N, 0.0000°E)
Time: 09:10:10
(UTC+00:00)

Vanguard 2 Rocket - Visible Passes

Search period start: 03 April 2020 00:00
Search period end: 13 April 2020 00:00
Orbit: 554 x 3326 km, 32.9° (Epoch: 02 April)

Date Brightness Start Highest point End Pass type
(mag) Time Alt. Az. Time Alt. Az. Time Alt. Az.
03 Apr 7.2 03:56:19 52° E 03:56:19 52° E 03:59:40 10° ENE visible
03 Apr 10.6 19:38:59 10° WSW 19:54:04 26° SSW 20:08:25 10° SSE visible
03 Apr 10.7 22:09:11 10° SSW 22:15:05 14° SSW 22:15:05 14° SSW visible
04 Apr 9.5 03:00:26 11° E 03:00:26 11° E 03:00:32 10° E visible
04 Apr 7.6 05:06:16 18° WNW 05:08:27 24° NW 05:11:56 10° NNE visible
04 Apr 10.6 18:34:59 10° W 18:50:42 33° SSW 19:07:31 10° SSE visible
04 Apr 10.6 21:02:50 10° SW 21:14:00 17° S 21:18:41 15° S visible
05 Apr 7.1 04:10:20 46° N 04:10:20 46° N 04:13:50 10° NE visible
05 Apr 10.6 19:56:52 10° WSW 20:10:13 21° SSW 20:22:14 11° SSE visible
05 Apr 10.8 22:24:55 10° SSW 22:28:01 13° SSW 22:28:01 13° SSW visible
06 Apr 9.1 03:14:22 16° ENE 03:14:22 16° ENE 03:15:12 10° ENE visible
06 Apr 8.5 05:21:18 10° NW 05:22:31 11° NW 05:23:41 10° NNW visible
06 Apr 10.7 18:52:05 10° WSW 19:06:27 25° SSW 19:21:24 10° SSE visible
06 Apr 10.6 21:20:07 10° SW 21:30:44 16° S 21:31:33 16° S visible
07 Apr 7.9 04:24:11 25° NNW 04:24:11 25° NNW 04:27:21 10° NNE visible
07 Apr 10.6 20:14:46 10° SW 20:26:52 18° S 20:35:03 14° SSE visible
07 Apr 10.9 22:39:10 10° SSW 22:40:49 12° SSW 22:40:49 12° SSW visible
08 Apr 8.8 03:28:07 18° NNE 03:28:07 18° NNE 03:29:18 10° NE visible
08 Apr 10.7 19:09:46 10° SW 19:22:49 21° SSW 19:35:56 10° SSE visible
08 Apr 10.6 21:35:44 10° SSW 21:44:18 18° S 21:44:18 18° S visible
09 Apr 8.7 04:37:49 13° NW 04:37:49 13° NW 04:39:39 10° NNW visible
09 Apr 10.8 18:05:46 10° WSW 18:18:56 24° SSW 18:33:50 10° SSE visible
09 Apr 10.5 20:31:40 10° SW 20:43:44 18° S 20:47:47 17° SSE visible
09 Apr 10.9 22:52:47 10° SSW 22:53:33 11° SSW 22:53:33 11° SSW visible
10 Apr 8.9 03:41:40 16° N 03:41:40 16° N 03:42:49 10° NNE visible
10 Apr 10.6 19:27:20 10° SW 19:39:36 19° S 19:51:15 10° SE visible
10 Apr 10.6 21:50:05 10° SSW 21:57:01 19° SSW 21:57:01 19° SSW visible
11 Apr 10.7 18:23:17 10° SW 18:35:26 20° S 18:48:35 10° SSE visible
11 Apr 10.4 20:47:05 10° SSW 21:00:27 21° S 21:00:31 21° S visible
11 Apr 11.0 23:06:13 10° SW 23:06:17 10° SW 23:06:17 10° SW visible
12 Apr 9.1 03:55:02 11° N 03:55:02 11° N 03:55:29 10° N visible
12 Apr 10.5 19:43:50 10° SW 19:56:31 19° S 20:04:01 15° SSE visible
12 Apr 10.6 22:03:49 10° SW 22:09:47 20° SSW 22:09:47 20° SSW visible
